�N����,����,�~����,�C��,���x,�C��,����,���ϕ���,�ő�u�ԕ���,�ő厞����,���˗�,�I�_���x,�n�����x,�ő啗���N��,DTYPE
"17/06/04","00:10",0.0,14.7,75.2,1003.6,330.3,2.0,3.1,320.4,0.00,10.4,19.3,"00:09:52",1
"17/06/04","00:20",0.0,14.7,75.3,1003.1,313.0,2.1,3.3,334.3,0.00,10.4,19.4,"00:12:16",1
"17/06/04","00:30",0.0,14.6,75.5,1003.4,316.3,2.2,3.6,330.1,0.00,10.4,19.2,"00:29:44",1
"17/06/04","00:40",0.0,14.6,76.0,1003.1,321.8,2.6,4.1,333.8,0.00,10.5,19.2,"00:33:52",1
"17/06/04","00:50",0.0,14.4,76.6,1003.1,315.2,2.0,3.2,343.6,0.00,10.4,19.0,"00:44:40",1
"17/06/04","01:00",0.0,14.1,77.5,1002.9,312.1,2.0,3.6,334.4,0.00,10.3,18.9,"00:57:28",1
"17/06/04","01:10",0.0,14.0,77.9,1003.1,316.0,1.7,2.7,341.0,0.00,10.2,19.0,"01:09:20",1
"17/06/04","01:20",0.0,14.0,78.3,1003.1,325.1,2.2,3.2,333.4,0.00,10.3,18.9,"01:11:52",1
"17/06/04","01:30",0.0,14.1,78.6,1002.9,328.9,2.7,4.3,325.5,0.00,10.5,18.8,"01:23:12",1
"17/06/04","01:40",0.0,14.0,79.2,1002.9,331.5,2.7,4.1,313.1,0.00,10.5,18.8,"01:35:36",1
"17/06/04","01:50",0.0,13.9,79.6,1002.9,331.6,2.6,4.2,330.6,0.00,10.5,18.8,"01:44:00",1
"17/06/04","02:00",0.0,13.8,79.8,1003.1,323.8,2.6,4.9,328.2,0.00,10.4,18.8,"01:52:00",1
"17/06/04","02:10",0.0,13.9,79.9,1002.6,324.4,3.1,4.4,328.0,0.00,10.5,18.6,"02:07:52",1
"17/06/04","02:20",0.0,13.9,79.8,1002.9,321.4,2.6,4.1,316.3,0.00,10.5,19.0,"02:11:12",1
"17/06/04","02:30",0.0,13.8,80.0,1002.9,314.1,1.8,3.7,347.5,0.00,10.5,18.6,"02:22:08",1
"17/06/04","02:40",0.0,13.7,80.3,1002.9,322.2,1.7,3.6,342.4,0.00,10.4,18.4,"02:39:44",1
"17/06/04","02:50",0.0,13.7,80.7,1002.9,326.4,2.5,3.7,326.7,0.00,10.5,18.3,"02:49:52",1
"17/06/04","03:00",0.0,13.7,81.2,1002.6,323.2,2.6,4.4,316.8,0.00,10.6,18.5,"02:54:48",1
"17/06/04","03:10",0.0,13.7,81.7,1003.1,330.8,2.7,4.9,333.2,0.00,10.7,18.3,"03:06:00",1
"17/06/04","03:20",0.0,13.6,81.6,1002.9,325.0,2.1,3.5,323.5,0.00,10.6,18.3,"03:12:32",1
"17/06/04","03:30",0.0,13.6,82.0,1002.9,319.4,2.1,4.2,337.5,0.00,10.6,18.3,"03:26:58",1
"17/06/04","03:40",0.0,13.4,82.6,1002.9,319.1,2.0,3.9,337.0,0.00,10.5,18.3,"03:33:36",1
"17/06/04","03:50",0.0,13.2,83.2,1003.1,315.9,1.3,3.1,316.5,0.00,10.5,18.2,"03:49:54",1
"17/06/04","04:00",0.0,13.2,83.9,1003.1,326.8,2.7,4.3,321.5,0.00,10.6,18.1,"03:56:00",1
"17/06/04","04:10",0.0,13.1,84.5,1003.4,325.1,2.6,4.7,331.2,0.00,10.6,18.1,"04:02:32",1
"17/06/04","04:20",0.0,13.1,84.7,1003.1,324.3,2.6,4.9,333.8,0.00,10.6,18.1,"04:14:08",1
"17/06/04","04:30",0.0,13.1,85.0,1003.4,324.4,2.7,4.9,337.8,0.00,10.7,18.2,"04:25:04",1
"17/06/04","04:40",0.0,13.0,85.2,1003.4,325.0,2.7,4.4,331.1,0.00,10.6,17.9,"04:33:44",1
"17/06/04","04:50",0.0,12.9,85.6,1003.6,331.0,2.8,4.3,339.9,0.00,10.6,17.9,"04:40:32",1
"17/06/04","05:00",0.0,12.8,86.2,1003.6,327.2,2.2,4.2,335.2,0.00,10.6,17.9,"04:54:24",1
"17/06/04","05:10",0.0,12.8,86.5,1003.8,325.5,2.6,4.9,327.4,0.00,10.6,17.8,"05:06:40",1
"17/06/04","05:20",0.0,12.8,86.5,1003.6,325.4,3.1,5.4,336.0,0.00,10.6,17.8,"05:11:20",1
"17/06/04","05:30",0.0,12.8,86.6,1003.6,330.8,3.4,5.5,320.4,0.00,10.7,17.9,"05:20:48",1
"17/06/04","05:40",0.0,12.8,86.8,1004.3,325.7,2.8,4.5,336.0,0.00,10.7,17.5,"05:33:04",1
"17/06/04","05:50",0.0,13.1,86.7,1004.3,331.3,2.7,4.0,351.6,0.00,11.0,17.7,"05:41:04",1
"17/06/04","06:00",0.0,13.1,86.7,1004.1,332.7,2.1,3.5,343.6,0.01,11.0,17.7,"05:52:24",1
"17/06/04","06:10",0.0,13.4,86.7,1004.3,333.2,2.1,3.9,334.9,0.02,11.3,17.6,"06:00:02",1
"17/06/04","06:20",0.0,14.0,85.3,1004.3,332.3,2.3,4.5,312.6,0.04,11.6,17.6,"06:10:08",1
"17/06/04","06:30",0.0,14.5,83.7,1004.5,325.8,2.2,3.5,335.3,0.05,11.8,17.7,"06:25:12",1
"17/06/04","06:40",0.0,15.1,81.7,1004.5,330.9,1.8,3.2,315.1,0.07,12.0,17.6,"06:30:16",1
"17/06/04","06:50",0.0,15.7,78.2,1004.8,338.6,1.3,2.6,331.1,0.09,12.0,17.8,"06:41:36",1
"17/06/04","07:00",0.0,16.4,74.4,1004.8,342.6,0.8,2.0,343.3,0.11,11.9,17.9,"06:54:08",1
"17/06/04","07:10",0.0,16.7,73.3,1004.5,330.6,0.8,1.4,335.0,0.07,11.9,18.1,"07:07:08",1
"17/06/04","07:20",0.0,16.4,75.3,1004.8,330.6,0.8,1.3,326.5,0.06,12.1,17.9,"07:17:12",1
"17/06/04","07:30",0.0,17.3,72.0,1005.0,327.9,0.7,1.9,332.8,0.17,12.2,17.9,"07:26:32",1
"17/06/04","07:40",0.0,18.0,69.6,1004.8,232.8,0.6,2.0,241.5,0.20,12.4,18.3,"07:38:56",1
"17/06/04","07:50",0.0,18.5,69.1,1005.0,228.5,0.7,2.4,227.6,0.23,12.8,18.3,"07:46:40",1
"17/06/04","08:00",0.0,18.7,66.0,1004.5,246.0,0.7,1.8,331.0,0.22,12.3,18.5,"07:59:28",1
"17/06/04","08:10",0.0,19.1,63.3,1004.5,20.3,0.8,1.9,62.7,0.23,12.0,18.7,"08:05:04",1
"17/06/04","08:20",0.0,18.3,65.1,1004.8,351.8,2.2,5.7,349.6,0.11,11.7,18.5,"08:12:32",1
"17/06/04","08:30",0.0,19.6,60.9,1004.8,338.3,2.6,5.5,322.8,0.35,11.9,18.8,"08:28:08",1
"17/06/04","08:40",0.0,20.6,60.1,1004.8,26.4,1.2,3.9,2.1,0.36,12.6,19.2,"08:32:32",1
"17/06/04","08:50",0.0,19.1,60.8,1004.3,341.7,1.2,5.4,341.4,0.14,11.4,19.3,"08:49:44",1
"17/06/04","09:00",0.0,20.3,59.3,1004.3,355.1,1.5,5.0,356.6,0.31,12.2,19.3,"08:52:16",1
"17/06/04","09:10",0.0,19.2,58.2,1004.3,347.7,2.3,4.8,337.4,0.14,10.8,19.5,"09:00:02",1
"17/06/04","09:20",0.0,20.0,57.1,1004.3,355.6,2.1,4.2,6.1,0.26,11.3,19.7,"09:11:28",1
"17/06/04","09:30",0.0,21.0,55.6,1004.3,358.3,1.6,4.1,337.7,0.38,11.8,19.9,"09:26:56",1
"17/06/04","09:40",0.0,21.8,49.5,1004.1,33.4,1.3,3.1,358.5,0.47,10.8,20.1,"09:31:04",1
"17/06/04","09:50",0.0,21.9,47.4,1003.8,23.2,1.3,3.1,358.3,0.48,10.3,20.2,"09:46:56",1
"17/06/04","10:00",0.0,22.6,46.5,1004.1,8.2,1.6,4.1,331.7,0.51,10.6,20.6,"09:52:32",1
"17/06/04","10:10",0.0,22.2,48.0,1003.6,9.2,1.7,6.6,336.1,0.45,10.7,20.9,"10:01:36",1
"17/06/04","10:20",0.0,21.5,48.3,1003.8,355.8,2.7,5.9,338.2,0.40,10.2,21.1,"10:19:44",1
"17/06/04","10:30",0.0,22.0,48.1,1004.1,345.7,2.8,5.9,350.7,0.56,10.6,21.4,"10:25:28",1
"17/06/04","10:40",0.0,22.2,46.5,1003.6,342.3,3.1,7.3,338.0,0.57,10.2,21.7,"10:38:00",1
"17/06/04","10:50",0.0,22.3,47.6,1003.6,353.1,3.0,6.8,1.6,0.59,10.7,21.9,"10:46:48",1
"17/06/04","11:00",0.0,22.8,45.7,1003.1,8.3,2.3,5.6,357.2,0.60,10.5,22.1,"10:50:24",1
"17/06/04","11:10",0.0,22.7,43.1,1003.4,18.8,3.0,7.8,338.4,0.61,9.6,22.4,"11:08:32",1
"17/06/04","11:20",0.0,22.7,42.8,1003.4,3.4,3.1,6.3,12.4,0.61,9.5,22.5,"11:19:52",1
"17/06/04","11:30",0.0,23.3,41.9,1003.1,357.8,2.7,5.0,353.8,0.62,9.7,22.9,"11:20:40",1
"17/06/04","11:40",0.0,22.8,44.8,1003.4,344.1,3.7,6.4,358.8,0.62,10.2,23.0,"11:38:32",1
"17/06/04","11:50",0.0,22.5,43.5,1003.1,335.6,4.0,8.8,329.8,0.63,9.5,23.2,"11:46:48",1
"17/06/04","12:00",0.0,23.4,41.3,1003.4,328.9,2.7,5.8,323.7,0.63,9.6,23.4,"11:56:16",1
"17/06/04","12:10",0.0,23.6,39.3,1003.1,7.8,2.3,6.2,324.9,0.63,9.0,23.9,"12:00:56",1
"17/06/04","12:20",0.0,23.5,40.4,1003.1,355.9,2.8,5.4,327.6,0.63,9.3,24.0,"12:17:36",1
"17/06/04","12:30",0.0,23.3,40.1,1002.6,22.3,2.5,5.1,40.6,0.58,9.0,24.0,"12:25:04",1
"17/06/04","12:40",0.0,23.6,38.3,1002.9,352.2,3.1,8.0,8.1,0.64,8.6,24.1,"12:38:08",1
"17/06/04","12:50",0.0,23.9,37.2,1002.9,350.8,2.2,5.4,324.2,0.64,8.5,24.5,"12:46:48",1
"17/06/04","13:00",0.0,23.6,36.4,1002.6,340.6,3.4,8.3,340.5,0.63,7.9,24.4,"12:59:04",1
"17/06/04","13:10",0.0,23.8,36.6,1002.6,336.0,2.6,6.4,334.0,0.61,8.1,24.2,"13:05:44",1
"17/06/04","13:20",0.0,23.9,38.8,1002.6,311.7,3.2,5.5,328.9,0.61,9.1,23.8,"13:13:20",1
"17/06/04","13:30",0.0,24.5,39.1,1002.4,341.1,2.1,4.1,320.8,0.60,9.7,23.8,"13:23:28",1
"17/06/04","13:40",0.0,23.9,36.9,1002.2,342.7,3.5,7.8,344.2,0.59,8.3,23.7,"13:35:04",1
"17/06/04","13:50",0.0,23.8,34.3,1002.4,325.8,3.1,7.1,341.2,0.58,7.2,23.7,"13:46:40",1
"17/06/04","14:00",0.0,24.2,36.8,1002.4,323.0,3.0,6.0,343.4,0.57,8.6,23.6,"13:58:32",1
"17/06/04","14:10",0.0,25.1,34.1,1002.6,333.0,2.1,5.0,226.7,0.56,8.2,23.7,"14:02:16",1
"17/06/04","14:20",0.0,25.0,33.3,1002.4,348.0,2.3,5.6,335.1,0.54,7.8,23.6,"14:18:56",1
"17/06/04","14:30",0.0,25.0,33.5,1002.4,355.8,2.5,4.5,336.4,0.54,7.9,23.7,"14:24:48",1
"17/06/04","14:40",0.0,24.7,32.4,1002.4,341.4,2.8,4.5,347.5,0.52,7.1,23.8,"14:30:24",1
"17/06/04","14:50",0.0,24.6,31.5,1002.2,354.6,3.1,5.7,342.3,0.49,6.6,23.8,"14:44:08",1
"17/06/04","15:00",0.0,24.9,33.9,1002.2,346.6,2.6,4.8,331.3,0.48,8.0,23.7,"14:59:44",1
"17/06/04","15:10",0.0,25.1,33.1,1002.4,344.3,2.6,6.4,328.9,0.46,7.8,23.8,"15:01:12",1
"17/06/04","15:20",0.0,24.8,33.7,1002.6,344.1,3.0,6.3,346.2,0.46,7.8,23.9,"15:19:28",1
"17/06/04","15:30",0.0,24.7,33.7,1001.9,349.4,2.8,6.5,342.9,0.43,7.7,23.8,"15:21:04",1
"17/06/04","15:40",0.0,24.5,36.9,1002.2,354.9,2.8,4.8,19.3,0.41,8.9,23.8,"15:36:48",1
"17/06/04","15:50",0.0,24.6,36.9,1002.4,357.9,2.8,5.2,5.9,0.39,9.0,24.1,"15:44:32",1
"17/06/04","16:00",0.0,24.9,36.1,1002.2,353.1,2.5,5.0,353.1,0.37,8.9,23.9,"15:52:56",1
"17/06/04","16:10",0.0,24.4,34.9,1002.6,358.4,3.2,6.5,336.2,0.35,8.0,23.8,"16:00:56",1
"17/06/04","16:20",0.0,24.3,36.9,1002.4,5.9,2.6,5.4,347.9,0.32,8.7,23.5,"16:11:28",1
"17/06/04","16:30",0.0,24.3,37.6,1002.4,356.8,3.0,6.8,42.7,0.30,9.0,23.6,"16:25:36",1
"17/06/04","16:40",0.0,23.9,37.7,1002.6,4.5,2.8,4.7,13.0,0.28,8.7,23.5,"16:30:24",1
"17/06/04","16:50",0.0,23.9,38.6,1002.4,356.8,2.7,6.3,64.7,0.25,9.0,23.5,"16:47:28",1
"17/06/04","17:00",0.0,23.5,39.1,1002.6,340.9,3.2,7.0,342.2,0.22,8.8,23.5,"16:55:20",1
"17/06/04","17:10",0.0,23.3,38.7,1002.6,335.5,3.7,6.5,338.0,0.06,8.5,23.5,"17:00:08",1
"17/06/04","17:20",0.0,23.0,38.9,1002.9,337.3,3.5,7.4,348.1,0.01,8.3,23.3,"17:10:40",1
"17/06/04","17:30",0.0,22.8,39.1,1003.1,340.0,3.2,6.0,311.8,0.01,8.2,23.0,"17:26:16",1
"17/06/04","17:40",0.0,22.8,40.2,1003.1,338.6,2.8,6.3,340.8,0.01,8.6,23.2,"17:33:28",1
"17/06/04","17:50",0.0,22.8,40.1,1003.1,345.3,2.3,4.9,335.6,0.00,8.6,23.0,"17:42:08",1
"17/06/04","18:00",0.0,22.6,40.0,1003.1,344.4,1.8,8.1,343.3,0.00,8.4,23.0,"17:50:08",1
"17/06/04","18:10",0.0,22.2,41.5,1003.4,9.5,2.1,4.4,24.2,0.00,8.6,22.9,"18:08:00",1
"17/06/04","18:20",0.0,21.8,44.2,1003.4,338.8,2.2,4.4,330.1,0.00,9.1,22.7,"18:11:20",1
"17/06/04","18:30",0.0,21.4,43.8,1003.8,344.0,2.6,4.7,25.8,0.00,8.6,22.7,"18:26:24",1
"17/06/04","18:40",0.0,20.6,43.9,1003.8,333.6,3.5,6.6,333.1,0.00,7.9,22.6,"18:35:52",1
"17/06/04","18:50",0.0,20.2,45.0,1003.8,332.2,3.9,6.4,328.1,0.00,7.9,22.4,"18:40:48",1
"17/06/04","19:00",0.0,19.7,46.1,1003.8,331.4,3.0,4.5,336.3,0.00,7.8,22.2,"18:55:04",1
"17/06/04","19:10",0.0,19.3,48.0,1004.5,334.4,2.7,4.1,335.5,0.00,8.1,22.0,"19:00:08",1
"17/06/04","19:20",0.0,19.0,49.6,1004.8,331.1,2.2,4.2,344.7,0.00,8.3,22.0,"19:17:12",1
"17/06/04","19:30",0.0,18.7,53.0,1004.5,329.2,1.7,3.1,337.2,0.00,9.0,21.8,"19:20:32",1
"17/06/04","19:40",0.0,17.9,56.4,1004.8,321.9,1.5,2.6,334.5,0.00,9.2,21.7,"19:32:24",1
"17/06/04","19:50",0.0,17.2,58.7,1004.8,328.6,1.6,2.7,332.0,0.00,9.1,21.5,"19:49:12",1
"17/06/04","20:00",0.0,17.0,59.4,1005.0,317.1,2.2,3.4,320.3,0.00,9.1,21.2,"19:56:48",1
"17/06/04","20:10",0.0,16.8,61.0,1005.2,334.4,2.0,3.9,339.5,0.00,9.3,21.3,"20:04:56",1
"17/06/04","20:20",0.0,16.5,61.3,1005.2,331.8,2.1,3.2,330.8,0.00,9.1,21.2,"20:15:52",1
"17/06/04","20:30",0.0,16.3,62.6,1005.2,333.4,2.0,3.3,343.0,0.00,9.2,21.0,"20:21:20",1
"17/06/04","20:40",0.0,16.1,63.2,1005.2,322.9,2.1,3.6,330.6,0.00,9.1,20.8,"20:31:28",1
"17/06/04","20:50",0.0,15.9,63.6,1005.5,332.2,1.6,3.3,346.6,0.00,9.1,20.7,"20:40:32",1
"17/06/04","21:00",0.0,15.7,64.3,1005.7,327.0,2.3,5.2,327.5,0.00,9.0,20.6,"20:58:08",1
"17/06/04","21:10",0.0,15.5,64.5,1005.7,320.8,1.7,3.3,335.4,0.00,8.9,20.6,"21:02:00",1
"17/06/04","21:20",0.0,15.3,64.9,1005.7,324.3,1.2,2.6,336.1,0.00,8.8,20.3,"21:15:36",1
"17/06/04","21:30",0.0,15.2,63.5,1006.2,325.5,1.6,2.9,319.5,0.00,8.4,20.4,"21:21:52",1
"17/06/04","21:40",0.0,15.1,67.4,1006.0,337.0,1.7,4.1,336.7,0.00,9.2,20.2,"21:34:16",1
"17/06/04","21:50",0.0,14.5,68.3,1006.4,330.9,1.8,2.6,334.8,0.00,8.8,20.1,"21:48:56",1
"17/06/04","22:00",0.0,14.6,68.2,1006.7,328.6,2.3,3.9,338.1,0.00,8.8,19.8,"21:57:44",1
"17/06/04","22:10",0.0,14.5,69.0,1006.2,328.0,1.7,2.9,338.3,0.00,8.9,19.8,"22:08:00",1
"17/06/04","22:20",0.0,14.4,69.9,1006.4,329.6,2.2,3.2,327.6,0.00,9.0,19.8,"22:13:28",1
"17/06/04","22:30",0.0,14.3,70.0,1006.9,334.3,2.2,3.4,340.0,0.00,8.9,19.5,"22:24:08",1
"17/06/04","22:40",0.0,14.2,70.1,1006.7,331.7,2.6,3.9,333.8,0.00,8.9,19.5,"22:35:04",1
"17/06/04","22:50",0.0,14.0,70.5,1006.9,334.4,2.6,3.9,340.8,0.00,8.8,19.5,"22:48:24",1
"17/06/04","23:00",0.0,14.0,71.6,1007.1,333.8,2.6,4.1,330.4,0.00,9.0,19.3,"22:52:40",1
"17/06/04","23:10",0.0,14.0,71.7,1006.9,333.7,2.7,3.5,323.4,0.00,9.0,19.4,"23:04:00",1
"17/06/04","23:20",0.0,14.4,69.9,1007.1,327.2,3.2,4.2,316.7,0.00,9.0,19.2,"23:14:08",1
"17/06/04","23:30",0.0,14.4,68.9,1007.6,332.7,2.6,4.2,330.6,0.00,8.8,19.2,"23:25:04",1
"17/06/04","23:40",0.0,14.2,69.5,1007.4,333.0,2.2,3.2,344.3,0.00,8.7,19.0,"23:30:40",1
"17/06/04","23:50",0.0,13.8,69.9,1007.1,332.4,2.2,4.0,310.9,0.00,8.4,18.9,"23:48:48",1
"17/06/04","24:00",0.0,13.5,70.9,1007.1,332.4,2.3,3.9,338.9,0.00,8.4,18.9,"23:58:56",1
